Weather History for Stevens Point, WI

Change the Weather History Date:

Wednesday, May 14, 2014

  Actual Average Record
Temperature  
Mean Temperature 46 °F -  
Max Temperature 55 °F 65 °F 89 °F (2007)
Min Temperature 38 °F 44 °F 33 °F (1953)
Degree Days  
Heating Degree Days 18    
Moisture  
Dew Point 31 °F    
Average Humidity 54    
Maximum Humidity 84    
Minimum Humidity 33    
Precipitation  
Precipitation 0.03 in - - ()
Sea Level Pressure  
Sea Level Pressure 30.15 in    
Wind  
Wind Speed 6 mph (NW)    
Max Wind Speed 13 mph    
Max Gust Speed 20 mph    
Visibility 10 miles    
Events      
Averages and records for this station are not official NWS values.
T = Trace of Precipitation, MM = Missing Value Source: NWS Daily Summary

Daily Weather History Graph

Daily Weather History Graph

Search for Another Location

Airport:

Trip Planner

Search our weather history database for the weather conditions in past years. The results will help you decide how hot, cold, wet, or windy it might be!

Date:

Astronomy

May. 14, 2014 Rise Set
Actual Time 5:31 AM CDT 8:18 PM CDT
Civil Twilight 4:57 AM CDT 8:51 PM CDT
Nautical Twilight 4:15 AM CDT 9:34 PM CDT
Astronomical Twilight 3:25 AM CDT 10:24 PM CDT
Moon 8:22 PM CDT (5/14) 5:32 AM CDT (5/14)
Length of Visible Light 15h 54m
Length of Day
14h 46m
Full, 100% of the Moon is Illuminated
May 14
Full
May 14
Full
May 21
Last Quarter
May 28
New
Jun 5
First Quarter

Hourly Weather History & Observations

Time (CDT) Temp. Windchill Dew Point Humidity Pressure Visibility Wind Dir Wind Speed Gust Speed Precip Events Conditions
12:15 AM 43.7 °F 41.1 °F 36.9 °F 77% 30.14 in 10.0 mi West 4.6 mph - N/A   Clear
12:35 AM 43.7 °F 42.1 °F 36.9 °F 77% 30.14 in 10.0 mi WSW 3.5 mph - N/A   Clear
12:55 AM 43.0 °F 40.3 °F 36.7 °F 78% 30.14 in 10.0 mi West 4.6 mph - N/A   Clear
1:15 AM 43.0 °F 39.5 °F 36.5 °F 78% 30.14 in 10.0 mi West 5.8 mph - N/A   Clear
1:35 AM 42.8 °F 40.1 °F 36.3 °F 78% 30.15 in 10.0 mi West 4.6 mph - N/A   Clear
1:55 AM 42.4 °F 39.6 °F 36.0 °F 78% 30.14 in 10.0 mi WNW 4.6 mph - N/A   Clear
2:15 AM 41.9 °F 39.0 °F 35.8 °F 79% 30.14 in 10.0 mi WNW 4.6 mph - N/A   Clear
2:35 AM 41.5 °F 37.8 °F 35.6 °F 79% 30.14 in 10.0 mi WNW 5.8 mph - N/A   Clear
2:55 AM 41.2 °F 38.2 °F 35.4 °F 80% 30.14 in 10.0 mi WNW 4.6 mph - N/A   Clear
3:15 AM 40.8 °F 38.8 °F 35.2 °F 80% 30.15 in 10.0 mi WNW 3.5 mph - N/A   Clear
3:35 AM 40.3 °F 38.2 °F 35.1 °F 82% 30.15 in 10.0 mi West 3.5 mph - N/A   Clear
3:55 AM 40.1 °F 38.0 °F 35.1 °F 82% 30.16 in 10.0 mi WNW 3.5 mph - N/A   Clear
4:15 AM 39.6 °F 36.3 °F 34.9 °F 83% 30.16 in 10.0 mi West 4.6 mph - N/A   Clear
4:35 AM 39.4 °F 37.2 °F 34.7 °F 83% 30.15 in 10.0 mi West 3.5 mph - N/A   Clear
4:55 AM 39.2 °F 35.9 °F 34.7 °F 84% 30.16 in 10.0 mi West 4.6 mph - N/A   Clear
5:15 AM 39.2 °F 35.9 °F 34.7 °F 84% 30.17 in 10.0 mi WNW 4.6 mph - N/A   Clear
5:35 AM 38.8 °F 36.5 °F 34.2 °F 83% 30.17 in 10.0 mi WNW 3.5 mph - N/A   Clear
5:55 AM 38.5 °F - 34.0 °F 84% 30.18 in 10.0 mi Calm Calm - N/A   Clear
6:15 AM 38.8 °F - 34.0 °F 83% 30.19 in 10.0 mi Calm Calm - N/A   Clear
6:35 AM 39.2 °F - 34.3 °F 83% 30.20 in 10.0 mi Calm Calm - N/A   Clear
6:55 AM 40.3 °F 38.2 °F 34.7 °F 80% 30.20 in 10.0 mi WNW 3.5 mph - N/A   Clear
7:15 AM 41.2 °F 38.2 °F 34.9 °F 78% 30.21 in 10.0 mi NW 4.6 mph - N/A   Clear
7:55 AM 43.3 °F 39.9 °F 34.3 °F 71% 30.21 in 10.0 mi NW 5.8 mph - N/A   Clear
8:15 AM 45.1 °F 39.9 °F 33.4 °F 64% 30.21 in 10.0 mi NNW 10.4 mph - N/A   Clear
8:35 AM 46.4 °F 41.1 °F 32.7 °F 59% 30.21 in 10.0 mi WNW 11.5 mph 17.3 mph N/A   Clear
8:55 AM 46.9 °F - 33.3 °F 59% 30.21 in 10.0 mi NW 6.9 mph - N/A   Clear
9:15 AM 47.3 °F - 33.1 °F 58% 30.21 in 10.0 mi NNW 10.4 mph 17.3 mph N/A   Clear
10:15 AM - - - N/A% - - North - - N/A   Unknown
10:35 AM 49.5 °F - 30.4 °F 48% 30.20 in 10.0 mi West 9.2 mph - 0.03 in   Scattered Clouds
10:55 AM 49.8 °F - 30.4 °F 47% 30.21 in 10.0 mi NW 9.2 mph - 0.03 in   Mostly Cloudy
11:15 AM 50.0 °F - 28.6 °F 44% 30.20 in 10.0 mi West 8.1 mph - N/A   Overcast
11:55 AM 51.8 °F - 27.7 °F 39% 30.19 in 10.0 mi WNW 9.2 mph 19.6 mph N/A   Scattered Clouds
12:15 PM 52.9 °F - 28.6 °F 39% 30.18 in 10.0 mi NNW 11.5 mph 16.1 mph N/A   Clear
12:35 PM 52.9 °F - 28.9 °F 40% 30.18 in 10.0 mi WNW 8.1 mph - N/A   Scattered Clouds
12:55 PM 52.7 °F - 28.6 °F 40% 30.18 in 10.0 mi NNW 12.7 mph 17.3 mph N/A   Mostly Cloudy
1:15 PM 53.2 °F - 28.4 °F 38% 30.18 in 10.0 mi NNW 12.7 mph 16.1 mph N/A   Scattered Clouds
1:35 PM 54.0 °F - 27.7 °F 36% 30.16 in 10.0 mi NNW 11.5 mph 17.3 mph N/A   Scattered Clouds
1:55 PM 53.8 °F - 27.3 °F 36% 30.16 in 10.0 mi NW 10.4 mph 19.6 mph N/A   Clear
2:15 PM 54.7 °F - 27.7 °F 35% 30.17 in 10.0 mi NNW 10.4 mph 18.4 mph N/A   Clear
2:35 PM 54.5 °F - 27.3 °F 35% 30.16 in 10.0 mi North 9.2 mph 16.1 mph N/A   Clear
3:15 PM 54.7 °F - 27.0 °F 34% 30.15 in 10.0 mi West 3.5 mph 16.1 mph N/A   Clear
3:35 PM 54.9 °F - 27.3 °F 35% 30.14 in 10.0 mi NW 10.4 mph 16.1 mph N/A   Clear
3:55 PM 54.7 °F - 26.1 °F 33% 30.14 in 10.0 mi NW 6.9 mph - N/A   Clear
4:15 PM 55.0 °F - 27.3 °F 34% 30.13 in 10.0 mi NNW 11.5 mph - N/A   Clear
4:35 PM 54.5 °F - 26.6 °F 34% 30.13 in 10.0 mi NNW 9.2 mph - N/A   Clear
4:55 PM 54.7 °F - 26.8 °F 34% 30.12 in 10.0 mi NNW 9.2 mph - N/A   Clear
5:15 PM 54.9 °F - 26.1 °F 33% 30.13 in 10.0 mi NW 5.8 mph - N/A   Clear
5:35 PM 54.5 °F - 26.4 °F 34% 30.13 in 10.0 mi NW 8.1 mph - N/A   Clear
5:55 PM 54.5 °F - 26.2 °F 34% 30.12 in 10.0 mi WNW 6.9 mph - N/A   Clear
6:15 PM 54.5 °F - 26.4 °F 34% 30.11 in 10.0 mi NNW 8.1 mph - N/A   Clear
6:35 PM 54.5 °F - 25.9 °F 33% 30.10 in 10.0 mi NW 6.9 mph - N/A   Clear
6:55 PM 54.0 °F - 26.8 °F 35% 30.10 in 10.0 mi NW 3.5 mph - N/A   Clear
7:15 PM 53.6 °F - 26.4 °F 35% 30.09 in 10.0 mi NW 6.9 mph - N/A   Clear
7:35 PM 52.9 °F - 27.3 °F 37% 30.09 in 10.0 mi NW 4.6 mph - N/A   Clear
7:55 PM 52.7 °F - 27.5 °F 38% 30.10 in 10.0 mi NW 3.5 mph - N/A   Clear
8:15 PM 52.2 °F - 27.7 °F 39% 30.10 in 10.0 mi NW 4.6 mph - N/A   Clear
8:35 PM 51.8 °F - 27.7 °F 39% 30.11 in 10.0 mi NW 4.6 mph - N/A   Clear
8:55 PM 51.1 °F - 27.7 °F 40% 30.10 in 10.0 mi NNW 5.8 mph - N/A   Clear
9:15 PM 50.2 °F - 28.9 °F 44% 30.10 in 10.0 mi NNW 4.6 mph - N/A   Clear
9:35 PM 50.0 °F - 28.4 °F 43% 30.10 in 10.0 mi NNW 4.6 mph - N/A   Scattered Clouds
9:55 PM 49.3 °F - 28.8 °F 45% 30.10 in 10.0 mi North 4.6 mph - N/A   Mostly Cloudy
10:15 PM 49.1 °F - 28.0 °F 44% 30.09 in 10.0 mi North 4.6 mph - N/A   Overcast
10:35 PM 49.1 °F - 28.0 °F 44% 30.10 in 10.0 mi North 5.8 mph - N/A   Overcast
10:55 PM 49.1 °F - 28.4 °F 45% 30.10 in 10.0 mi NNW 5.8 mph - N/A   Overcast
11:15 PM 49.1 °F - 27.9 °F 44% 30.10 in 10.0 mi North 5.8 mph - N/A   Overcast
11:35 PM 49.1 °F - 27.3 °F 43% 30.09 in 10.0 mi NNE 8.1 mph - N/A   Overcast
11:55 PM 49.1 °F - 28.0 °F 44% 30.09 in 10.0 mi NNE 10.4 mph - N/A   Mostly Cloudy